Probability
0 0 0 0 0 0 0 0 0 0 0 0 0 0 0 0 0 0 0 0 0 0 0 0 0 0 0 0 0 0 0 0 0 0 0 0 0 0 0 0 0 0 0
0 0 0 0 0 0 0 0 0 0 0 0 0 0 0 0 0 0 0 0 0 0 0 0 1 1 1 0 0 0 0 0 0 0 0 0 0 0 0 0 0 0 0
1 0 0 0 0 0 0 0 0 0 0 0 0 0 0 0 0 0 0 0 0 0 0 1 2 3 3 1 0 0 0 0 0 0 0 0 0 0 0 0 0 0 0
2 1 0 0 0 0 0 0 0 0 0 0 0 0 0 0 0 0 0 0 0 0 0 1 2 4 4 3 2 1 1 0 0 0 0 0 0 0 0 0 0 0 0
2 1 0 0 0 0 0 0 0 0 0 0 0 0 0 0 0 0 0 0 0 0 0 0 1 2 3 3 3 2 1 0 0 0 0 0 0 0 0 0 0 0 0
1 1 1 0 0 0 0 0 0 0 0 0 0 0 0 0 0 0 0 0 0 0 0 0 0 0 1 1 2 3 2 1 0 0 0 0 0 0 0 0 0 0 0
0 1 1 0 0 0 0 0 0 0 0 0 0 0 0 0 0 0 0 0 0 0 0 0 0 0 0 0 1 2 2 1 0 0 0 0 0 0 0 0 0 0 0
0 0 0 0 0 0 0 0 0 0 0 0 0 0 0 0 0 0 0 0 0 0 0 0 0 0 0 0 0 1 1 1 0 0 0 0 0 0 0 0 0 0 0
0 0 0 0 0 0 0 0 0 0 0 0 0 0 0 0 0 0 0 0 0 0 0 0 0 0 0 0 0 0 0 0 0 0 0 0 0 0 0 0 0 0 0
0 0 0 0 0 0 0 0 0 0 0 0 0 0 0 0 0 0 0 0 0 0 0 0 0 0 0 0 0 0 0 0 0 0 0 0 0 0 0 0 0 0 0
0 0 0 0 0 0 0 0 0 0 0 0 0 0 0 0 0 0 0 0 0 0 0 0 0 0 0 0 0 0 0 0 0 0 0 0 0 0 0 0 0 0 0
0 0 0 0 0 0 0 0 0 0 0 0 0 0 0 0 0 0 0 0 0 0 0 0 0 0 0 0 0 0 0 0 0 0 0 0 0 0 0 0 0 0 0
0 0 0 0 0 0 0 0 0 0 0 0 0 0 0 0 0 0 0 0 0 0 0 0 0 0 0 0 0 0 0 0 0 0 0 0 0 0 0 0 0 0 0
0 0 0 0 0 0 0 0 0 0 0 0 0 0 0 0 0 0 0 0 0 0 0 0 0 0 0 0 0 0 0 0 0 0 0 0 0 0 0 0 0 0 0
0 0 0 0 0 0 0 0 0 0 0 0 0 0 0 0 0 0 0 0 0 0 0 0 0 0 0 0 0 0 0 0 0 0 0 0 0 0 0 0 0 0 0
0 0 0 0 0 0 0 0 0 0 0 0 0 0 0 0 0 0 0 0 0 0 0 0 0 0 0 0 0 0 0 0 0 0 0 0 0 0 0 0 0 0 0
0 0 0 0 0 0 0 0 0 0 0 0 0 0 0 0 0 0 0 0 0 0 0 0 0 0 0 0 0 0 0 0 0 0 0 0 0 0 0 0 0 0 0
0 0 0 0 0 0 0 0 0 0 0 0 0 0 0 0 0 0 0 0 0 0 0 0 0 0 0 0 0 0 0 0 0 0 0 0 0 0 0 0 0 0 0
0 0 0 0 0 0 0 0 0 0 0 0 0 0 0 0 0 0 0 0 0 0 0 0 0 0 0 0 0 0 0 0 0 0 0 0 0 0 0 0 0 0 0
0 0 0 0 0 0 0 0 0 0 0 0 0 0 0 0 0 0 0 0 0 0 0 0 0 0 0 0 0 0 0 0 0 0 0 0 0 0 0 0 0 0 0
0 0 0 0 0 0 0 0 0 0 0 0 0 0 0 0 0 0 0 0 0 0 0 0 0 0 0 0 0 0 0 0 0 0 0 0 0 0 0 0 0 0 0
0 0 0 0 0 0 0 0 0 0 0 0 0 0 0 0 0 0 0 0 0 0 0 0 0 0 0 0 0 0 0 0 0 0 0 0 0 0 0 0 0 0 0
0 0 0 0 0 0 0 0 0 0 0 0 0 0 0 0 0 0 0 0 0 0 0 0 0 0 0 0 0 0 0 0 0 0 0 0 0 0 0 0 0 0 0
0 0 0 0 0 0 0 0 0 0 0 0 0 0 0 0 0 0 0 0 0 0 0 0 0 0 0 0 0 0 0 0 0 0 0 0 0 0 0 0 0 0 0
0 0 0 0 0 0 0 0 0 0 0 0 0 0 0 0 0 0 0 0 0 0 0 0 0 0 0 0 0 0 0 0 0 0 0 0 0 0 0 0 0 0 0
0 0 0 0 0 0 0 0 0 0 0 0 0 0 0 0 0 0 0 0 0 0 0 0 0 0 0 0 0 0 0 0 0 0 0 0 0 0 0 0 0 0 0
Wind_Speed
2 1 1 1 1 1 2 2 2 3 2 3 3 3 3 2 1 1 2 6 7 7 7 7 7 7 6 6 5 6 6 5 6 6 7 7 7 7 8 8 9 9 9
1 1 1 2 2 2 2 2 2 2 2 2 3 3 3 2 2 1 1 2 6 6 7 7 7 7 7 6 7 7 6 6 6 6 6 7 8 7 7 8 9 9 10
1 1 1 1 1 2 2 2 2 2 2 2 2 3 2 2 2 2 2 1 2 5 6 7 8 8 8 7 7 7 7 7 7 7 7 7 8 8 8 9 9 10 10
2 1 1 1 2 2 2 2 2 2 2 2 2 2 2 2 2 2 2 2 1 2 4 7 8 8 8 8 8 7 8 7 8 8 8 8 8 9 9 10 9 10 11
3 2 1 1 2 2 2 2 2 2 2 2 2 2 1 1 2 2 1 2 2 2 2 4 7 8 9 9 9 9 8 9 9 9 9 9 10 10 10 10 11 11 11
3 2 1 1 1 1 1 2 2 2 1 2 2 2 2 2 1 1 1 1 2 2 2 3 3 5 8 9 10 9 9 10 9 9 10 10 11 11 11 11 11 12 12
2 1 1 1 1 1 1 1 1 2 2 2 1 2 2 2 1 1 1 1 1 2 3 3 2 2 3 8 10 10 10 10 10 10 11 11 11 12 12 12 12 12 13
2 1 1 1 1 1 1 1 1 1 1 2 1 2 2 2 1 2 1 1 1 2 3 3 3 3 3 2 6 10 10 11 11 11 11 12 12 12 13 13 14 13 13
1 1 1 1 1 1 1 1 1 1 1 2 1 0 1 2 3 2 2 1 1 2 2 3 3 3 3 3 3 7 10 11 12 13 12 12 12 12 13 13 14 14 15
2 2 1 1 0 0 1 1 1 1 1 2 2 1 2 1 2 3 2 2 2 2 3 3 3 3 2 2 3 7 10 11 12 13 13 13 13 14 14 14 15 15 16
1 2 1 1 1 1 1 1 2 2 1 2 2 2 2 2 2 3 5 4 3 3 2 3 3 2 2 2 2 5 10 12 12 12 13 14 14 14 14 15 15 16 16
1 2 1 1 1 1 1 1 1 2 2 2 2 2 2 2 2 3 5 5 5 4 3 3 3 2 2 2 4 8 11 12 12 13 13 14 14 14 15 15 16 16 17
1 2 1 0 0 1 1 1 1 2 2 2 2 2 2 3 2 3 3 4 5 4 3 2 2 2 3 2 3 8 9 12 13 13 14 14 15 15 15 16 16 17 17
1 1 1 0 1 1 1 1 1 2 2 2 3 3 2 2 2 2 3 3 5 4 4 4 3 2 2 2 5 9 6 11 13 14 14 15 15 16 16 16 17 17 17
1 1 1 0 1 1 1 1 1 1 2 2 2 3 2 2 2 2 2 2 3 5 6 4 3 3 3 3 7 5 5 10 14 15 15 15 16 16 17 17 17 18 18
1 1 1 1 1 1 1 1 1 1 1 2 2 2 3 2 2 2 2 2 3 4 6 4 4 4 5 5 8 6 6 12 13 15 16 16 17 17 17 18 18 18 19
1 2 2 1 1 1 1 1 2 2 2 2 2 3 3 3 2 2 2 2 3 3 6 6 4 4 5 6 6 5 6 6 7 13 16 17 17 17 17 18 18 18 19
2 2 1 1 1 2 2 2 2 2 2 3 3 3 4 3 3 3 2 3 3 4 5 8 6 5 6 6 6 7 7 6 6 12 15 16 17 17 17 18 18 18 18
2 1 1 2 2 2 2 2 2 2 3 3 3 3 4 4 4 3 3 3 3 4 4 5 7 5 5 5 6 7 7 6 7 9 13 14 15 17 17 17 18 18 17
1 2 2 2 3 3 3 3 3 3 3 3 4 4 4 4 5 4 4 4 4 4 4 5 6 6 6 5 5 6 7 5 7 6 9 11 13 15 16 17 17 17 17
2 2 2 2 2 3 3 3 3 3 3 3 4 4 4 5 6 5 4 4 3 4 4 5 6 6 6 6 5 5 7 7 6 5 5 6 6 6 7 12 15 17 17
2 2 2 3 3 3 4 5 4 3 3 4 5 5 5 5 6 8 9 8 6 5 5 5 6 7 8 7 6 6 6 7 7 3 5 6 4 6 6 5 12 16 16
2 3 3 3 3 4 6 6 5 3 4 4 5 5 5 5 5 4 7 9 9 10 10 8 8 9 8 8 7 7 6 7 8 6 6 8 5 6 6 7 14 16 16
2 3 3 3 4 5 7 7 6 4 4 5 5 5 6 6 5 5 5 6 6 7 8 7 7 8 7 7 6 6 7 8 7 6 5 7 6 6 7 6 13 15 16
3 3 3 3 4 5 7 7 6 3 4 5 5 5 5 6 8 8 6 6 7 7 8 9 10 10 12 12 10 5 5 5 7 6 4 5 6 7 6 6 8 13 15
4 3 4 4 4 5 7 7 7 3 4 5 5 5 6 7 9 9 6 6 7 7 6 6 7 8 8 8 10 6 5 5 6 6 3 4 5 5 6 4 4 6 7
Wind_Direction
24 24 23 22 22 21 13 9 9 7 8 8 18 15 9 8 10 26 24 21 14 7 1 357 357 355 352 350 345 344 345 350 352 351 349 344 340 341 341 340 337 333 330
21 16 19 20 17 10 6 9 4 1 2 12 16 9 357 347 351 1 41 20 9 1 353 349 347 346 344 345 344 342 341 342 342 342 340 339 338 334 333 332 330 329 327
16 21 23 22 9 5 12 14 11 11 7 11 10 360 350 344 348 355 1 352 352 0 349 343 342 341 339 334 334 337 339 338 337 335 333 333 332 331 328 324 323 321 322
16 27 24 14 10 13 17 10 10 5 356 353 354 343 337 338 342 341 352 351 347 350 346 345 344 342 342 338 335 335 332 332 332 334 333 328 324 323 324 319 315 314 315
14 21 18 12 16 22 14 359 1 2 350 348 334 325 325 324 309 325 340 342 346 350 343 338 337 338 337 334 332 332 334 335 333 330 327 326 323 319 315 316 313 309 308
3 26 21 13 18 24 8 5 358 359 340 331 323 325 305 288 282 307 308 322 329 336 341 338 326 327 329 328 326 323 324 325 326 327 328 327 321 321 317 310 311 310 307
359 16 19 10 16 21 358 356 359 356 341 343 327 314 291 269 233 296 298 297 321 340 343 338 330 326 321 327 325 323 322 326 325 326 327 324 326 323 317 316 310 310 310
0 354 22 2 7 8 356 8 358 335 329 352 341 317 304 294 292 277 273 284 329 339 339 339 330 324 326 326 329 330 326 326 325 323 321 321 320 319 320 319 319 311 311
358 340 13 0 356 11 322 321 301 308 294 312 329 290 289 280 311 271 257 263 308 317 312 310 317 324 332 338 329 330 330 328 325 323 319 318 317 318 317 318 317 318 313
25 1 27 346 307 292 281 294 315 302 258 276 287 273 257 257 279 299 294 293 303 295 293 304 309 307 314 316 329 333 330 326 324 322 318 317 317 317 317 317 316 314 313
19 2 28 32 357 306 274 278 295 292 269 261 270 283 283 279 251 263 285 298 299 283 283 291 292 293 300 313 316 322 324 323 321 319 317 315 313 313 313 313 312 311 311
7 355 10 29 3 332 309 282 274 277 275 271 268 262 265 260 265 261 272 290 292 290 289 281 284 286 296 311 316 320 317 315 316 316 314 312 310 309 308 308 306 307 307
331 325 336 335 349 334 316 308 298 286 287 283 272 264 264 267 271 273 274 285 291 292 286 278 269 279 297 296 298 310 310 310 308 308 308 307 306 305 304 304 304 305 305
251 301 290 320 343 346 328 326 309 295 299 294 293 287 279 278 278 276 269 277 291 289 283 276 283 265 284 293 291 302 301 303 302 304 305 304 302 302 302 303 303 304 304
253 291 258 249 288 311 324 321 297 301 296 288 290 295 292 287 281 276 270 262 263 284 286 281 290 296 305 295 291 296 288 296 300 300 300 301 301 299 300 301 302 302 301
246 284 254 232 261 281 287 278 285 286 281 286 294 300 300 297 290 283 271 270 260 264 278 286 288 294 297 296 296 299 293 299 299 298 297 297 297 297 298 300 300 300 300
241 255 231 227 245 263 262 264 278 288 283 292 297 294 297 301 292 290 282 273 270 266 272 286 292 293 293 294 299 295 291 288 289 293 296 296 297 298 298 298 298 298 300
253 251 223 220 251 265 268 263 272 281 280 288 294 297 297 299 293 285 279 278 270 265 266 281 291 291 291 292 293 293 296 295 290 292 295 295 298 299 299 298 299 299 301
263 256 236 234 249 258 262 262 261 267 273 280 287 287 291 295 290 287 286 282 278 278 272 275 286 292 292 294 298 296 291 290 291 293 295 294 297 299 299 299 301 301 301
252 250 251 245 250 255 262 264 265 267 272 281 284 284 286 283 284 283 282 282 284 285 283 279 284 290 290 291 292 299 302 296 290 291 292 294 296 298 296 299 299 300 300
258 259 263 265 264 261 262 261 262 264 271 282 287 285 283 286 290 288 285 283 278 279 281 280 284 289 290 298 296 298 297 302 294 289 298 296 296 292 291 294 297 298 299
268 268 261 262 265 270 284 279 276 273 277 277 282 286 285 285 291 295 297 297 286 274 276 277 281 283 287 292 294 293 300 305 302 305 308 301 300 297 297 291 298 301 302
272 272 273 269 267 274 287 288 286 281 276 277 281 286 288 291 293 290 298 302 298 287 277 272 273 276 284 290 294 296 296 296 292 302 308 296 297 294 296 298 301 302 305
266 271 275 271 274 282 289 291 291 278 273 275 275 278 281 286 289 293 291 294 293 291 287 281 273 277 280 286 284 285 291 294 291 291 296 291 298 295 299 295 298 301 305
264 269 273 270 271 281 287 288 287 278 274 273 272 274 276 277 290 296 293 292 294 294 299 295 289 288 291 294 296 297 295 297 295 293 291 282 291 301 295 285 291 300 305
261 271 275 271 268 274 283 287 288 273 275 279 281 279 277 281 289 294 284 280 283 288 296 303 300 299 297 295 296 289 283 280 287 291 287 292 296 316 307 288 294 304 305